SCP
0 0 0 0 0 0 0 0 0 0 0 0 0 0 0 0 0 0 0 0 0 0
0 0 0 0 0 0 0 0 0 0 0 0 0 0 0 0 0 0 0 0 0 0
0 0 0 0 0 0 0 0 0 0 0 0 0 0 0 0 0 0 0 0 0 0
0 0 0 0 0 0 0 0 0 0 0 0 0 0 0 0 0 0 0 0 0 0
0 0 0 0 0 0 0 0 0 0 0 0 0 0 0 0 0 0 0 0 0 0
0 0 0 0 0 0 0 0 0 0 0 0 0 0 0 0 0 0 0 0 0 0
0 0 0 0 0 0 0 0 0 0 0 0 0 0 0 0 0 0 0 0 0 0
0 0 0 0 0 0 0 0 0 0 0 0 0 0 0 0 0 0 0 0 0 0
0 0 0 0 0 0 0 0 0 0 0 0 0 0 0 0 0 0 0 0 0 0
0 0 0 0 0 0 0 0 0 0 0 0 0 0 0 0 0 0 0 0 0 0
0 0 0 0 0 0 0 0 0 0 0 0 0 0 0 0 0 0 0 0 0 0
0 0 0 0 0 0 0 0 0 0 0 0 0 0 0 0 0 0 0 0 0 0
0 0 0 0 0 0 0 0 0 0 0 0 0 0 0 0 0 0 0 0 0 0
0 0 0 0 0 0 0 0 0 0 0 0 0 0 0 0 0 0 0 0 0 0
Wind_Speed_500mb
67 67 62 62 59 55 56 54 51 50 49 50 59 58 58 58 58 57 57 55 57 57
72 68 68 64 59 58 57 53 51 46 47 45 45 49 52 54 55 55 57 54 55 55
67 56 57 60 63 62 60 59 53 48 45 45 42 46 48 54 55 55 59 55 61 56
60 59 57 51 56 56 53 48 46 44 47 50 52 54 54 57 52 50 55 49 53 47
63 59 58 52 48 46 45 46 44 41 40 43 44 43 48 50 49 52 54 49 41 37
41 38 36 39 39 38 35 32 33 31 32 33 35 38 40 43 42 42 41 37 38 36
23 22 23 24 23 22 20 19 18 17 16 16 17 18 19 21 23 25 26 26 26 28
21 22 22 20 18 16 15 13 11 9 7 6 7 8 10 13 14 16 18 21 26 27
18 18 17 17 16 14 12 10 8 7 4 3 6 10 14 17 19 21 21 24 24 25
12 12 12 12 12 12 11 10 9 7 7 8 11 16 19 21 23 24 26 29 32 34
14 14 14 15 17 18 17 17 16 16 16 16 16 17 17 18 20 21 23 26 28 31
25 23 20 20 24 26 27 26 25 24 21 20 18 16 15 17 19 21 24 26 28 30
33 32 29 26 26 26 26 26 24 22 21 18 15 18 21 24 27 30 31 31 32 32
32 32 30 28 27 27 25 22 19 18 16 16 18 22 26 31 34 37 39 38 37 37
Wind_Direction_500mb
238 236 242 249 246 248 250 253 250 249 249 244 243 243 247 248 252 257 258 258 258 263
241 235 236 240 245 241 238 240 242 244 247 252 252 249 250 247 249 252 257 256 260 260
240 235 236 238 239 239 236 238 241 241 247 250 252 254 258 259 254 257 262 268 261 255
228 227 224 230 234 238 239 238 239 239 239 248 254 256 254 263 258 265 262 268 274 261
232 232 232 227 229 227 229 240 245 241 242 246 250 252 254 257 260 264 269 265 264 264
225 227 227 231 232 235 235 238 243 243 242 245 250 253 257 260 261 261 261 265 269 275
195 196 202 209 210 211 211 214 222 226 234 241 247 254 262 267 268 266 266 269 273 269
157 157 160 162 160 160 161 168 176 183 199 226 255 274 285 283 284 286 282 276 272 272
151 151 151 153 152 155 157 164 172 182 202 256 291 297 297 294 289 287 284 284 284 282
178 181 179 181 185 188 191 198 208 226 252 274 293 302 303 301 299 295 290 284 280 278
228 229 231 234 234 232 232 235 242 249 254 262 277 289 292 294 297 299 296 291 289 288
255 253 254 255 252 247 244 247 248 250 254 259 266 274 285 291 295 298 298 297 297 298
251 251 253 257 254 248 244 242 240 243 249 256 273 292 299 304 308 308 307 313 315 313
251 253 254 250 246 240 230 228 234 245 260 277 290 296 301 304 307 307 308 309 310 307
Wind_Speed_850mb
67 67 62 62 59 55 56 54 51 50 49 50 59 58 58 58 58 57 57 55 57 57
72 68 68 64 59 58 57 53 51 46 47 45 45 49 52 54 55 55 57 54 55 55
67 56 57 60 63 62 60 59 53 48 45 45 42 46 48 54 55 55 59 55 61 56
60 59 57 51 56 56 53 48 46 44 47 50 52 54 54 57 52 50 55 49 53 47
63 59 58 52 48 46 45 46 44 41 40 43 44 43 48 50 49 52 54 49 41 37
41 38 36 39 39 38 35 32 33 31 32 33 35 38 40 43 42 42 41 37 38 36
23 22 23 24 23 22 20 19 18 17 16 16 17 18 19 21 23 25 26 26 26 28
21 22 22 20 18 16 15 13 11 9 7 6 7 8 10 13 14 16 18 21 26 27
18 18 17 17 16 14 12 10 8 7 4 3 6 10 14 17 19 21 21 24 24 25
12 12 12 12 12 12 11 10 9 7 7 8 11 16 19 21 23 24 26 29 32 34
14 14 14 15 17 18 17 17 16 16 16 16 16 17 17 18 20 21 23 26 28 31
25 23 20 20 24 26 27 26 25 24 21 20 18 16 15 17 19 21 24 26 28 30
33 32 29 26 26 26 26 26 24 22 21 18 15 18 21 24 27 30 31 31 32 32
32 32 30 28 27 27 25 22 19 18 16 16 18 22 26 31 34 37 39 38 37 37
Wind_Direction_850mb
238 236 242 249 246 248 250 253 250 249 249 244 243 243 247 248 252 257 258 258 258 263
241 235 236 240 245 241 238 240 242 244 247 252 252 249 250 247 249 252 257 256 260 260
240 235 236 238 239 239 236 238 241 241 247 250 252 254 258 259 254 257 262 268 261 255
228 227 224 230 234 238 239 238 239 239 239 248 254 256 254 263 258 265 262 268 274 261
232 232 232 227 229 227 229 240 245 241 242 246 250 252 254 257 260 264 269 265 264 264
225 227 227 231 232 235 235 238 243 243 242 245 250 253 257 260 261 261 261 265 269 275
195 196 202 209 210 211 211 214 222 226 234 241 247 254 262 267 268 266 266 269 273 269
157 157 160 162 160 160 161 168 176 183 199 226 255 274 285 283 284 286 282 276 272 272
151 151 151 153 152 155 157 164 172 182 202 256 291 297 297 294 289 287 284 284 284 282
178 181 179 181 185 188 191 198 208 226 252 274 293 302 303 301 299 295 290 284 280 278
228 229 231 234 234 232 232 235 242 249 254 262 277 289 292 294 297 299 296 291 289 288
255 253 254 255 252 247 244 247 248 250 254 259 266 274 285 291 295 298 298 297 297 298
251 251 253 257 254 248 244 242 240 243 249 256 273 292 299 304 308 308 307 313 315 313
251 253 254 250 246 240 230 228 234 245 260 277 290 296 301 304 307 307 308 309 310 307